Time,TemperatureF,DewpointF,PressureIn,WindDirection,WindDirectionDegrees,WindSpeedMPH,WindSpeedGustMPH,Humidity,HourlyPrecipIn,Conditions,Clouds,dailyrainin,SoftwareType,DateUTC
2013-05-30 00:01:00,71.2,65.8,30.21,East,90,2.2,3.1,83,0.00,,,0.00,meteobridge,2013-05-30 04:01:00,
2013-05-30 00:02:00,71.2,65.8,30.21,East,90,3.1,3.1,83,0.00,,,0.00,meteobridge,2013-05-30 04:02:00,
2013-05-30 00:07:00,71.2,65.8,30.21,East,90,2.2,3.1,83,0.00,,,0.00,meteobridge,2013-05-30 04:07:00,
2013-05-30 00:12:00,71.1,65.7,30.21,South,180,1.6,2.2,83,0.00,,,0.00,meteobridge,2013-05-30 04:12:00,
2013-05-30 00:18:00,70.9,65.5,30.21,South,180,3.1,6.0,83,0.00,,,0.00,meteobridge,2013-05-30 04:18:00,
2013-05-30 00:23:00,70.9,65.5,30.21,South,180,3.1,5.4,83,0.00,,,0.00,meteobridge,2013-05-30 04:23:00,
2013-05-30 00:28:00,71.1,65.3,30.21,SE,135,4.5,5.4,82,0.00,,,0.00,meteobridge,2013-05-30 04:28:00,
2013-05-30 00:33:00,71.1,65.3,30.21,SE,135,3.8,4.5,82,0.00,,,0.00,meteobridge,2013-05-30 04:33:00,
2013-05-30 00:38:00,71.1,65.3,30.21,SE,135,4.5,6.0,82,0.00,,,0.00,meteobridge,2013-05-30 04:38:00,
2013-05-30 00:43:00,71.1,65.3,30.21,SE,135,3.1,4.5,82,0.00,,,0.00,meteobridge,2013-05-30 04:43:00,
2013-05-30 00:49:00,70.9,65.1,30.21,SSW,203,3.1,3.1,82,0.00,,,0.00,meteobridge,2013-05-30 04:49:00,
2013-05-30 00:54:00,70.9,65.1,30.21,SE,135,3.8,5.4,82,0.00,,,0.00,meteobridge,2013-05-30 04:54:00,
2013-05-30 00:59:00,70.9,65.1,30.21,East,90,4.5,4.5,82,0.00,,,0.00,meteobridge,2013-05-30 04:59:00,
2013-05-30 01:04:00,70.7,65.3,30.21,SSE,158,4.5,4.5,83,0.00,,,0.00,meteobridge,2013-05-30 05:04:00,
2013-05-30 01:09:00,70.5,65.1,30.22,SE,135,4.5,4.5,83,0.00,,,0.00,meteobridge,2013-05-30 05:09:00,
2013-05-30 01:14:00,70.3,64.9,30.22,NE,45,3.1,3.1,83,0.00,,,0.00,meteobridge,2013-05-30 05:14:00,
2013-05-30 01:20:00,70.3,64.9,30.22,South,180,4.5,4.5,83,0.00,,,0.00,meteobridge,2013-05-30 05:20:00,
2013-05-30 01:25:00,70.2,64.8,30.22,SW,225,1.6,3.1,83,0.00,,,0.00,meteobridge,2013-05-30 05:25:00,
2013-05-30 01:30:00,70.0,64.9,30.22,SE,135,3.8,3.8,84,0.00,,,0.00,meteobridge,2013-05-30 05:30:00,
2013-05-30 01:35:00,70.0,64.9,30.22,SE,135,3.8,3.8,84,0.00,,,0.00,meteobridge,2013-05-30 05:35:00,
2013-05-30 01:40:00,69.8,64.8,30.22,East,90,3.1,4.5,84,0.00,,,0.00,meteobridge,2013-05-30 05:40:00,
2013-05-30 01:46:00,69.8,64.8,30.22,SE,135,3.8,4.5,84,0.00,,,0.00,meteobridge,2013-05-30 05:46:00,
2013-05-30 01:51:00,69.6,64.9,30.22,SE,135,3.8,4.5,85,0.00,,,0.00,meteobridge,2013-05-30 05:51:00,
2013-05-30 01:56:00,69.6,65.3,30.22,South,180,3.8,3.8,86,0.00,,,0.00,meteobridge,2013-05-30 05:56:00,
2013-05-30 02:01:00,69.4,65.1,30.22,SSE,158,3.1,3.1,86,0.00,,,0.00,meteobridge,2013-05-30 06:01:00,
2013-05-30 02:06:00,69.3,64.9,30.22,South,180,2.2,3.8,86,0.00,,,0.00,meteobridge,2013-05-30 06:06:00,
2013-05-30 02:11:00,69.1,64.8,30.22,SE,135,3.1,3.8,86,0.00,,,0.00,meteobridge,2013-05-30 06:11:00,
2013-05-30 02:17:00,69.1,65.1,30.22,SE,135,2.2,2.2,87,0.00,,,0.00,meteobridge,2013-05-30 06:17:00,
2013-05-30 02:22:00,68.9,64.9,30.22,East,90,2.2,3.1,87,0.00,,,0.00,meteobridge,2013-05-30 06:22:00,
2013-05-30 02:27:00,68.9,65.1,30.22,SE,135,3.1,3.1,88,0.00,,,0.00,meteobridge,2013-05-30 06:27:00,
2013-05-30 02:32:00,68.7,64.9,30.22,SE,135,3.1,3.8,88,0.00,,,0.00,meteobridge,2013-05-30 06:32:00,
2013-05-30 02:37:00,68.7,64.9,30.22,East,90,3.1,3.8,88,0.00,,,0.00,meteobridge,2013-05-30 06:37:00,
2013-05-30 02:42:00,68.5,64.8,30.22,SE,135,3.1,3.1,88,0.00,,,0.00,meteobridge,2013-05-30 06:42:00,
2013-05-30 02:48:00,68.4,64.6,30.22,SE,135,1.6,2.2,88,0.00,,,0.00,meteobridge,2013-05-30 06:48:00,
2013-05-30 02:53:00,68.4,64.9,30.22,SE,135,1.6,1.6,89,0.00,,,0.00,meteobridge,2013-05-30 06:53:00,
2013-05-30 02:58:00,68.2,64.8,30.22,SE,135,3.8,3.8,89,0.00,,,0.00,meteobridge,2013-05-30 06:58:00,
2013-05-30 03:03:00,68.2,65.1,30.22,SE,135,1.6,3.1,90,0.00,,,0.00,meteobridge,2013-05-30 07:03:00,
2013-05-30 03:08:00,68.0,64.9,30.22,South,180,2.2,3.1,90,0.00,,,0.00,meteobridge,2013-05-30 07:08:00,
2013-05-30 03:13:00,67.8,65.1,30.22,ENE,68,1.6,1.6,91,0.00,,,0.00,meteobridge,2013-05-30 07:13:00,
2013-05-30 03:19:00,67.8,65.5,30.22,SE,135,2.2,2.2,92,0.00,,,0.00,meteobridge,2013-05-30 07:19:00,
2013-05-30 03:24:00,67.6,65.3,30.22,East,90,3.1,3.1,92,0.00,,,0.00,meteobridge,2013-05-30 07:24:00,
2013-05-30 03:29:00,67.6,65.5,30.22,East,90,2.2,3.1,93,0.00,,,0.00,meteobridge,2013-05-30 07:29:00,
2013-05-30 03:34:00,67.5,65.7,30.22,SE,135,3.8,4.5,94,0.00,,,0.00,meteobridge,2013-05-30 07:34:00,
2013-05-30 03:39:00,67.5,65.7,30.22,South,180,2.2,3.8,94,0.00,,,0.00,meteobridge,2013-05-30 07:39:00,
2013-05-30 03:44:00,67.5,65.7,30.22,SE,135,2.2,3.8,94,0.00,,,0.00,meteobridge,2013-05-30 07:44:00,
2013-05-30 03:50:00,67.3,65.5,30.22,East,90,2.2,3.8,94,0.00,,,0.00,meteobridge,2013-05-30 07:50:00,
2013-05-30 03:55:00,67.1,65.3,30.22,SE,135,3.1,3.1,94,0.00,,,0.00,meteobridge,2013-05-30 07:55:00,
2013-05-30 04:00:00,66.9,65.1,30.22,SE,135,2.2,2.2,94,0.00,,,0.00,meteobridge,2013-05-30 08:00:00,
2013-05-30 04:05:00,66.9,65.5,30.23,SE,135,3.1,3.8,95,0.00,,,0.00,meteobridge,2013-05-30 08:05:00,
2013-05-30 04:10:00,66.7,65.3,30.22,East,90,2.2,2.2,95,0.00,,,0.00,meteobridge,2013-05-30 08:10:00,
2013-05-30 04:15:00,66.6,65.1,30.22,SE,135,1.6,2.2,95,0.00,,,0.00,meteobridge,2013-05-30 08:15:00,
2013-05-30 04:21:00,66.6,65.1,30.23,SE,135,3.1,3.8,95,0.00,,,0.00,meteobridge,2013-05-30 08:21:00,
2013-05-30 04:26:00,66.4,65.1,30.22,SE,135,3.1,3.1,96,0.00,,,0.00,meteobridge,2013-05-30 08:26:00,
2013-05-30 04:31:00,66.4,65.1,30.22,SE,135,4.5,4.5,96,0.00,,,0.00,meteobridge,2013-05-30 08:31:00,
2013-05-30 04:36:00,66.2,64.9,30.23,East,90,3.8,3.8,96,0.00,,,0.00,meteobridge,2013-05-30 08:36:00,
2013-05-30 04:41:00,66.0,65.1,30.22,SE,135,3.1,3.1,97,0.00,,,0.00,meteobridge,2013-05-30 08:41:00,
2013-05-30 04:46:00,66.0,65.1,30.22,SE,135,3.8,3.8,97,0.00,,,0.00,meteobridge,2013-05-30 08:46:00,
2013-05-30 04:52:00,65.8,65.3,30.22,SE,135,3.8,3.8,98,0.00,,,0.00,meteobridge,2013-05-30 08:52:00,
2013-05-30 04:57:00,65.7,65.1,30.23,SE,135,3.1,3.1,98,0.00,,,0.00,meteobridge,2013-05-30 08:57:00,
2013-05-30 05:02:00,65.7,65.1,30.23,SE,135,3.1,3.1,98,0.00,,,0.00,meteobridge,2013-05-30 09:02:00,
2013-05-30 05:07:00,65.5,65.1,30.23,ESE,113,2.2,2.2,99,0.00,,,0.00,meteobridge,2013-05-30 09:07:00,
2013-05-30 05:12:00,65.7,65.3,30.23,SE,135,2.2,2.2,99,0.00,,,0.00,meteobridge,2013-05-30 09:12:00,
2013-05-30 05:17:00,65.5,65.1,30.24,SE,135,1.6,1.6,99,0.00,,,0.00,meteobridge,2013-05-30 09:17:00,
2013-05-30 05:23:00,65.5,65.1,30.24,SE,135,1.6,1.6,99,0.00,,,0.00,meteobridge,2013-05-30 09:23:00,
2013-05-30 05:28:00,65.5,65.1,30.24,SE,135,2.2,2.2,99,0.00,,,0.00,meteobridge,2013-05-30 09:28:00,
2013-05-30 05:33:00,65.5,65.1,30.24,East,90,2.2,2.2,99,0.00,,,0.00,meteobridge,2013-05-30 09:33:00,
2013-05-30 05:38:00,65.5,65.1,30.24,SE,135,2.2,2.2,99,0.00,,,0.00,meteobridge,2013-05-30 09:38:00,
2013-05-30 05:43:00,65.3,64.9,30.25,SE,135,3.1,3.1,99,0.00,,,0.00,meteobridge,2013-05-30 09:43:00,
2013-05-30 05:48:00,65.5,65.1,30.25,SSE,158,3.1,3.1,99,0.00,,,0.00,meteobridge,2013-05-30 09:48:00,
2013-05-30 05:54:00,65.5,65.1,30.25,SE,135,2.2,3.1,99,0.00,,,0.00,meteobridge,2013-05-30 09:54:00,
2013-05-30 05:59:00,65.5,65.1,30.25,SE,135,1.6,3.1,99,0.00,,,0.00,meteobridge,2013-05-30 09:59:00,
2013-05-30 06:04:00,65.3,64.9,30.25,East,90,2.2,2.2,99,0.00,,,0.00,meteobridge,2013-05-30 10:04:00,
2013-05-30 06:09:00,65.3,64.9,30.26,SE,135,1.6,2.2,99,0.00,,,0.00,meteobridge,2013-05-30 10:09:00,
2013-05-30 06:14:00,65.5,65.1,30.25,SE,135,3.1,3.1,99,0.00,,,0.00,meteobridge,2013-05-30 10:14:00,
2013-05-30 06:19:00,65.5,65.1,30.25,SE,135,3.1,3.1,99,0.00,,,0.00,meteobridge,2013-05-30 10:19:00,
2013-05-30 06:25:00,65.1,64.8,30.25,SE,135,3.1,3.8,99,0.00,,,0.00,meteobridge,2013-05-30 10:25:00,
2013-05-30 06:30:00,65.1,64.8,30.25,SE,135,3.1,3.1,99,0.00,,,0.00,meteobridge,2013-05-30 10:30:00,
2013-05-30 06:35:00,65.1,64.8,30.26,East,90,2.2,2.2,99,0.00,,,0.00,meteobridge,2013-05-30 10:35:00,
2013-05-30 06:40:00,65.1,64.8,30.25,East,90,3.1,3.1,99,0.00,,,0.00,meteobridge,2013-05-30 10:40:00,
2013-05-30 06:45:00,65.3,64.9,30.25,SE,135,2.2,3.1,99,0.00,,,0.00,meteobridge,2013-05-30 10:45:00,
2013-05-30 06:50:00,65.5,65.1,30.26,ESE,113,2.2,3.1,99,0.00,,,0.00,meteobridge,2013-05-30 10:50:00,
2013-05-30 06:56:00,65.7,65.3,30.26,East,90,3.1,3.1,99,0.00,,,0.00,meteobridge,2013-05-30 10:56:00,
2013-05-30 07:01:00,65.8,65.5,30.26,SE,135,2.2,3.1,99,0.00,,,0.00,meteobridge,2013-05-30 11:01:00,
2013-05-30 07:06:00,66.7,66.4,30.26,SE,135,3.1,3.1,99,0.00,,,0.00,meteobridge,2013-05-30 11:06:00,
2013-05-30 07:11:00,68.5,68.0,30.26,SE,135,2.2,3.1,98,0.00,,,0.00,meteobridge,2013-05-30 11:11:00,
2013-05-30 07:16:00,70.0,68.2,30.26,ENE,68,3.8,3.8,94,0.00,,,0.00,meteobridge,2013-05-30 11:16:00,
2013-05-30 07:22:00,70.7,66.9,30.26,South,180,3.8,3.8,88,0.00,,,0.00,meteobridge,2013-05-30 11:22:00,
2013-05-30 07:27:00,71.6,66.6,30.26,SE,135,2.2,3.1,84,0.00,,,0.00,meteobridge,2013-05-30 11:27:00,
2013-05-30 07:32:00,73.0,67.3,30.26,SE,135,3.8,3.8,82,0.00,,,0.00,meteobridge,2013-05-30 11:32:00,
2013-05-30 07:37:00,73.6,67.1,30.26,SE,135,3.1,3.1,80,0.00,,,0.00,meteobridge,2013-05-30 11:37:00,
2013-05-30 07:42:00,75.4,68.4,30.26,South,180,3.1,3.1,79,0.00,,,0.00,meteobridge,2013-05-30 11:42:00,
2013-05-30 07:47:00,76.5,68.0,30.26,SW,225,2.2,3.1,75,0.00,,,0.00,meteobridge,2013-05-30 11:47:00,
2013-05-30 07:53:00,76.8,66.7,30.27,SW,225,3.8,4.5,71,0.00,,,0.00,meteobridge,2013-05-30 11:53:00,
2013-05-30 07:58:00,77.5,67.5,30.27,SW,225,3.1,3.1,71,0.00,,,0.00,meteobridge,2013-05-30 11:58:00,
2013-05-30 08:03:00,76.3,66.2,30.27,SW,225,6.0,6.9,71,0.00,,,0.00,meteobridge,2013-05-30 12:03:00,
2013-05-30 08:08:00,73.9,66.2,30.27,West,270,4.5,5.4,77,0.00,,,0.00,meteobridge,2013-05-30 12:08:00,
2013-05-30 08:13:00,74.8,67.1,30.27,SE,135,3.1,5.4,77,0.00,,,0.00,meteobridge,2013-05-30 12:13:00,
2013-05-30 08:18:00,74.8,66.4,30.27,SW,225,5.4,7.6,75,0.00,,,0.00,meteobridge,2013-05-30 12:18:00,
2013-05-30 08:24:00,75.6,66.7,30.27,SSE,158,6.0,6.0,74,0.00,,,0.00,meteobridge,2013-05-30 12:24:00,
2013-05-30 08:29:00,75.4,66.6,30.27,SW,225,6.0,6.0,74,0.00,,,0.00,meteobridge,2013-05-30 12:29:00,
2013-05-30 08:34:00,75.6,66.7,30.27,South,180,6.9,6.9,74,0.00,,,0.00,meteobridge,2013-05-30 12:34:00,
2013-05-30 08:39:00,75.9,67.1,30.28,SW,225,4.5,4.5,74,0.00,,,0.00,meteobridge,2013-05-30 12:39:00,
2013-05-30 08:44:00,76.8,67.5,30.28,SW,225,2.2,3.8,73,0.00,,,0.00,meteobridge,2013-05-30 12:44:00,
2013-05-30 08:49:00,77.9,67.3,30.27,West,270,3.8,3.8,70,0.00,,,0.00,meteobridge,2013-05-30 12:49:00,
2013-05-30 08:55:00,78.3,67.6,30.27,SSW,203,4.5,4.5,70,0.00,,,0.00,meteobridge,2013-05-30 12:55:00,
2013-05-30 09:00:00,78.1,67.1,30.28,SW,225,3.8,3.8,69,0.00,,,0.00,meteobridge,2013-05-30 13:00:00,
2013-05-30 09:05:00,78.4,66.9,30.28,SW,225,4.5,4.5,68,0.00,,,0.00,meteobridge,2013-05-30 13:05:00,
2013-05-30 09:10:00,78.4,66.6,30.27,South,180,1.6,7.6,67,0.00,,,0.00,meteobridge,2013-05-30 13:10:00,
2013-05-30 09:15:00,78.3,66.7,30.27,South,180,3.1,8.3,68,0.00,,,0.00,meteobridge,2013-05-30 13:15:00,
2013-05-30 09:20:00,79.3,67.5,30.27,SW,225,8.3,8.3,67,0.00,,,0.00,meteobridge,2013-05-30 13:20:00,
2013-05-30 09:26:00,78.4,67.5,30.27,SW,225,6.0,6.0,69,0.00,,,0.00,meteobridge,2013-05-30 13:26:00,
2013-05-30 09:31:00,79.0,66.6,30.27,SW,225,3.8,6.9,66,0.00,,,0.00,meteobridge,2013-05-30 13:31:00,
2013-05-30 09:36:00,80.4,67.6,30.27,SW,225,4.5,4.5,65,0.00,,,0.00,meteobridge,2013-05-30 13:36:00,
2013-05-30 09:41:00,80.2,66.9,30.27,South,180,5.4,6.0,64,0.00,,,0.00,meteobridge,2013-05-30 13:41:00,
2013-05-30 09:46:00,81.3,67.1,30.27,SW,225,13.0,13.0,62,0.00,,,0.00,meteobridge,2013-05-30 13:46:00,
2013-05-30 09:51:00,79.7,66.4,30.27,South,180,9.2,10.7,64,0.00,,,0.00,meteobridge,2013-05-30 13:51:00,
2013-05-30 09:57:00,79.7,66.4,30.27,SW,225,9.2,9.2,64,0.00,,,0.00,meteobridge,2013-05-30 13:57:00,
2013-05-30 10:02:00,80.2,66.9,30.27,West,270,2.2,6.0,64,0.00,,,0.00,meteobridge,2013-05-30 14:02:00,
2013-05-30 10:07:00,81.0,66.2,30.27,South,180,7.6,8.3,61,0.00,,,0.00,meteobridge,2013-05-30 14:07:00,
2013-05-30 10:12:00,80.6,65.8,30.27,South,180,6.9,8.3,61,0.00,,,0.00,meteobridge,2013-05-30 14:12:00,
2013-05-30 10:17:00,81.3,67.1,30.27,South,180,6.0,6.0,62,0.00,,,0.00,meteobridge,2013-05-30 14:17:00,
2013-05-30 10:22:00,81.3,66.0,30.26,SW,225,6.0,6.0,60,0.00,,,0.00,meteobridge,2013-05-30 14:22:00,
2013-05-30 10:28:00,82.2,67.5,30.26,SE,135,3.8,4.5,61,0.00,,,0.00,meteobridge,2013-05-30 14:28:00,
2013-05-30 10:33:00,81.5,66.7,30.26,East,90,6.0,6.0,61,0.00,,,0.00,meteobridge,2013-05-30 14:33:00,
2013-05-30 10:38:00,82.9,67.1,30.26,SW,225,7.6,7.6,59,0.00,,,0.00,meteobridge,2013-05-30 14:38:00,
2013-05-30 10:43:00,81.7,65.5,30.26,SW,225,3.1,7.6,58,0.00,,,0.00,meteobridge,2013-05-30 14:43:00,
2013-05-30 10:48:00,82.6,65.8,30.26,SE,135,4.5,6.9,57,0.00,,,0.00,meteobridge,2013-05-30 14:48:00,
2013-05-30 10:53:00,82.9,65.7,30.26,SE,135,3.8,9.8,56,0.00,,,0.00,meteobridge,2013-05-30 14:53:00,
2013-05-30 10:59:00,82.2,64.9,30.26,South,180,5.4,7.6,56,0.00,,,0.00,meteobridge,2013-05-30 14:59:00,
2013-05-30 11:04:00,82.6,65.3,30.27,South,180,7.6,7.6,56,0.00,,,0.00,meteobridge,2013-05-30 15:04:00,
2013-05-30 11:09:00,82.6,65.3,30.27,South,180,7.6,11.4,56,0.00,,,0.00,meteobridge,2013-05-30 15:09:00,
2013-05-30 11:14:00,82.6,65.8,30.26,South,180,6.0,8.3,57,0.00,,,0.00,meteobridge,2013-05-30 15:14:00,
2013-05-30 11:19:00,83.3,66.0,30.26,WSW,248,8.3,8.3,56,0.00,,,0.00,meteobridge,2013-05-30 15:19:00,
2013-05-30 11:24:00,82.4,66.2,30.26,SW,225,6.9,7.6,58,0.00,,,0.00,meteobridge,2013-05-30 15:24:00,
2013-05-30 11:30:00,83.3,64.9,30.26,West,270,6.0,6.0,54,0.00,,,0.00,meteobridge,2013-05-30 15:30:00,
2013-05-30 11:35:00,82.6,65.3,30.26,SW,225,6.0,6.9,56,0.00,,,0.00,meteobridge,2013-05-30 15:35:00,
2013-05-30 11:40:00,82.6,64.8,30.25,South,180,6.9,7.6,55,0.00,,,0.00,meteobridge,2013-05-30 15:40:00,
2013-05-30 11:45:00,82.9,65.1,30.25,WSW,248,9.2,9.2,55,0.00,,,0.00,meteobridge,2013-05-30 15:45:00,
2013-05-30 11:50:00,83.3,65.5,30.25,South,180,6.0,6.0,55,0.00,,,0.00,meteobridge,2013-05-30 15:50:00,
2013-05-30 11:55:00,83.5,65.7,30.25,SSE,158,4.5,6.0,55,0.00,,,0.00,meteobridge,2013-05-30 15:55:00,
2013-05-30 12:01:00,83.5,65.7,30.25,SW,225,9.8,9.8,55,0.00,,,0.00,meteobridge,2013-05-30 16:01:00,
2013-05-30 12:06:00,84.2,64.0,30.25,WSW,248,6.0,6.0,51,0.00,,,0.00,meteobridge,2013-05-30 16:06:00,
2013-05-30 12:11:00,85.1,64.4,30.25,SW,225,6.0,8.3,50,0.00,,,0.00,meteobridge,2013-05-30 16:11:00,
2013-05-30 12:16:00,84.2,64.6,30.25,SW,225,6.9,6.9,52,0.00,,,0.00,meteobridge,2013-05-30 16:16:00,
2013-05-30 12:21:00,84.7,64.6,30.25,West,270,7.6,8.3,51,0.00,,,0.00,meteobridge,2013-05-30 16:21:00,
2013-05-30 12:26:00,83.3,64.9,30.25,West,270,7.6,10.7,54,0.00,,,0.00,meteobridge,2013-05-30 16:26:00,
2013-05-30 12:32:00,83.1,63.7,30.24,West,270,6.0,6.0,52,0.00,,,0.00,meteobridge,2013-05-30 16:32:00,
2013-05-30 12:37:00,85.5,63.5,30.24,West,270,6.0,6.0,48,0.00,,,0.00,meteobridge,2013-05-30 16:37:00,
2013-05-30 12:42:00,84.9,64.2,30.24,West,270,5.4,5.4,50,0.00,,,0.00,meteobridge,2013-05-30 16:42:00,
2013-05-30 12:47:00,84.2,63.5,30.24,West,270,2.2,6.9,50,0.00,,,0.00,meteobridge,2013-05-30 16:47:00,
2013-05-30 12:52:00,85.8,62.6,30.24,South,180,6.9,7.6,46,0.00,,,0.00,meteobridge,2013-05-30 16:52:00,
2013-05-30 12:57:00,85.3,62.2,30.23,NW,315,3.8,7.6,46,0.00,,,0.00,meteobridge,2013-05-30 16:57:00,
2013-05-30 13:03:00,86.7,63.5,30.24,SW,225,10.7,10.7,46,0.00,,,0.00,meteobridge,2013-05-30 17:03:00,
2013-05-30 13:08:00,85.3,62.2,30.23,SW,225,6.0,7.6,46,0.00,,,0.00,meteobridge,2013-05-30 17:08:00,
2013-05-30 13:13:00,86.7,62.2,30.23,SW,225,8.3,9.2,44,0.00,,,0.00,meteobridge,2013-05-30 17:13:00,
2013-05-30 13:18:00,86.2,61.7,30.23,SW,225,6.0,9.2,44,0.00,,,0.00,meteobridge,2013-05-30 17:18:00,
2013-05-30 13:23:00,86.2,63.0,30.22,ENE,68,7.6,7.6,46,0.00,,,0.00,meteobridge,2013-05-30 17:23:00,
2013-05-30 13:29:00,86.9,62.4,30.22,West,270,6.9,7.6,44,0.00,,,0.00,meteobridge,2013-05-30 17:29:00,
2013-05-30 13:34:00,86.7,62.2,30.22,SW,225,5.4,8.3,44,0.00,,,0.00,meteobridge,2013-05-30 17:34:00,
2013-05-30 13:39:00,86.2,62.4,30.22,East,90,5.4,6.9,45,0.00,,,0.00,meteobridge,2013-05-30 17:39:00,
2013-05-30 13:44:00,86.2,62.4,30.22,ESE,113,6.0,7.6,45,0.00,,,0.00,meteobridge,2013-05-30 17:44:00,
2013-05-30 13:49:00,86.9,63.7,30.22,West,270,7.6,7.6,46,0.00,,,0.00,meteobridge,2013-05-30 17:49:00,
2013-05-30 13:54:00,85.8,63.3,30.22,West,270,7.6,9.8,47,0.00,,,0.00,meteobridge,2013-05-30 17:54:00,
2013-05-30 14:00:00,85.3,62.8,30.22,SW,225,6.9,6.9,47,0.00,,,0.00,meteobridge,2013-05-30 18:00:00,
2013-05-30 14:05:00,85.5,63.0,30.21,West,270,5.4,5.4,47,0.00,,,0.00,meteobridge,2013-05-30 18:05:00,
2013-05-30 14:10:00,85.8,62.6,30.21,West,270,6.0,11.4,46,0.00,,,0.00,meteobridge,2013-05-30 18:10:00,
2013-05-30 14:15:00,86.4,63.1,30.21,West,270,7.6,7.6,46,0.00,,,0.00,meteobridge,2013-05-30 18:15:00,
2013-05-30 14:20:00,87.4,62.2,30.21,SW,225,3.1,5.4,43,0.00,,,0.00,meteobridge,2013-05-30 18:20:00,
2013-05-30 14:25:00,87.1,62.6,30.21,SW,225,9.2,11.4,44,0.00,,,0.00,meteobridge,2013-05-30 18:25:00,
2013-05-30 14:31:00,87.1,62.6,30.21,SSW,203,6.0,8.3,44,0.00,,,0.00,meteobridge,2013-05-30 18:31:00,
2013-05-30 14:36:00,86.2,61.0,30.20,South,180,5.4,8.3,43,0.00,,,0.00,meteobridge,2013-05-30 18:36:00,
2013-05-30 14:41:00,87.6,62.4,30.20,NW,315,6.9,7.6,43,0.00,,,0.00,meteobridge,2013-05-30 18:41:00,
2013-05-30 14:46:00,87.6,61.0,30.21,SW,225,3.8,3.8,41,0.00,,,0.00,meteobridge,2013-05-30 18:46:00,
2013-05-30 14:51:00,87.4,62.2,30.20,West,270,9.2,9.2,43,0.00,,,0.00,meteobridge,2013-05-30 18:51:00,
2013-05-30 14:56:00,86.5,61.3,30.20,West,270,6.9,6.9,43,0.00,,,0.00,meteobridge,2013-05-30 18:56:00,
2013-05-30 15:02:00,86.7,62.2,30.20,West,270,6.9,7.6,44,0.00,,,0.00,meteobridge,2013-05-30 19:02:00,
2013-05-30 15:07:00,86.5,62.6,30.20,WSW,248,6.9,6.9,45,0.00,,,0.00,meteobridge,2013-05-30 19:07:00,
2013-05-30 15:12:00,86.9,62.4,30.19,WSW,248,7.6,9.8,44,0.00,,,0.00,meteobridge,2013-05-30 19:12:00,
2013-05-30 15:17:00,86.5,62.1,30.19,SW,225,9.2,9.8,44,0.00,,,0.00,meteobridge,2013-05-30 19:17:00,
2013-05-30 15:22:00,87.3,61.3,30.19,SW,225,3.8,4.5,42,0.00,,,0.00,meteobridge,2013-05-30 19:22:00,
2013-05-30 15:27:00,87.8,62.6,30.19,SW,225,9.8,9.8,43,0.00,,,0.00,meteobridge,2013-05-30 19:27:00,
2013-05-30 15:33:00,87.3,62.1,30.19,WSW,248,8.3,11.4,43,0.00,,,0.00,meteobridge,2013-05-30 19:33:00,
2013-05-30 15:38:00,87.4,61.5,30.19,SSW,203,7.6,9.2,42,0.00,,,0.00,meteobridge,2013-05-30 19:38:00,
2013-05-30 15:43:00,87.4,62.2,30.19,SW,225,7.6,9.8,43,0.00,,,0.00,meteobridge,2013-05-30 19:43:00,
2013-05-30 15:48:00,87.8,61.9,30.19,SW,225,6.9,6.9,42,0.00,,,0.00,meteobridge,2013-05-30 19:48:00,
2013-05-30 15:53:00,88.5,62.4,30.19,SW,225,7.6,7.6,42,0.00,,,0.00,meteobridge,2013-05-30 19:53:00,
2013-05-30 15:58:00,88.2,62.8,30.19,SW,225,8.3,10.7,43,0.00,,,0.00,meteobridge,2013-05-30 19:58:00,
2013-05-30 16:04:00,87.3,61.3,30.18,West,270,9.8,10.7,42,0.00,,,0.00,meteobridge,2013-05-30 20:04:00,
2013-05-30 16:09:00,88.0,62.1,30.18,WSW,248,9.8,9.8,42,0.00,,,0.00,meteobridge,2013-05-30 20:09:00,
2013-05-30 16:14:00,87.4,62.2,30.18,West,270,9.2,13.0,43,0.00,,,0.00,meteobridge,2013-05-30 20:14:00,
2013-05-30 16:19:00,87.1,61.9,30.17,SW,225,7.6,8.3,43,0.00,,,0.00,meteobridge,2013-05-30 20:19:00,
2013-05-30 16:25:00,88.2,62.8,30.17,SW,225,8.3,8.3,43,0.00,,,0.00,meteobridge,2013-05-30 20:25:00,
2013-05-30 16:30:00,88.0,62.6,30.17,NW,315,7.6,9.2,43,0.00,,,0.00,meteobridge,2013-05-30 20:30:00,
2013-05-30 16:35:00,87.4,63.5,30.17,SW,225,8.3,9.8,45,0.00,,,0.00,meteobridge,2013-05-30 20:35:00,
2013-05-30 16:40:00,88.2,62.2,30.17,West,270,4.5,7.6,42,0.00,,,0.00,meteobridge,2013-05-30 20:40:00,
2013-05-30 16:46:00,89.4,62.6,30.17,West,270,9.8,9.8,41,0.00,,,0.00,meteobridge,2013-05-30 20:46:00,
2013-05-30 16:51:00,89.2,63.1,30.17,SW,225,7.6,8.3,42,0.00,,,0.00,meteobridge,2013-05-30 20:51:00,
2013-05-30 16:56:00,88.7,62.6,30.17,West,270,3.8,6.9,42,0.00,,,0.00,meteobridge,2013-05-30 20:56:00,
2013-05-30 17:01:00,89.4,63.3,30.17,West,270,7.6,7.6,42,0.00,,,0.00,meteobridge,2013-05-30 21:01:00,
2013-05-30 17:06:00,90.0,63.1,30.17,West,270,8.3,8.3,41,0.00,,,0.00,meteobridge,2013-05-30 21:06:00,
2013-05-30 17:11:00,89.2,63.9,30.16,West,270,8.3,8.3,43,0.00,,,0.00,meteobridge,2013-05-30 21:11:00,
2013-05-30 17:17:00,89.8,63.0,30.16,SSW,203,5.4,6.9,41,0.00,,,0.00,meteobridge,2013-05-30 21:17:00,
2013-05-30 17:22:00,90.1,63.3,30.16,South,180,6.0,6.0,41,0.00,,,0.00,meteobridge,2013-05-30 21:22:00,
2013-05-30 17:27:00,90.1,63.3,30.16,SW,225,4.5,7.6,41,0.00,,,0.00,meteobridge,2013-05-30 21:27:00,
2013-05-30 17:32:00,90.9,63.9,30.16,SSW,203,6.9,6.9,41,0.00,,,0.00,meteobridge,2013-05-30 21:32:00,
2013-05-30 17:37:00,90.5,63.5,30.16,SW,225,6.0,6.9,41,0.00,,,0.00,meteobridge,2013-05-30 21:37:00,
2013-05-30 17:42:00,90.1,63.3,30.16,SW,225,6.0,6.9,41,0.00,,,0.00,meteobridge,2013-05-30 21:42:00,
2013-05-30 17:48:00,90.9,63.9,30.16,NW,315,3.1,4.5,41,0.00,,,0.00,meteobridge,2013-05-30 21:48:00,
2013-05-30 17:53:00,92.1,64.4,30.16,SSW,203,5.4,5.4,40,0.00,,,0.00,meteobridge,2013-05-30 21:53:00,
2013-05-30 17:58:00,91.8,65.5,30.16,West,270,4.5,5.4,42,0.00,,,0.00,meteobridge,2013-05-30 21:58:00,
2013-05-30 18:03:00,90.7,63.7,30.15,SW,225,5.4,6.0,41,0.00,,,0.00,meteobridge,2013-05-30 22:03:00,
2013-05-30 18:08:00,90.3,63.5,30.15,South,180,5.4,5.4,41,0.00,,,0.00,meteobridge,2013-05-30 22:08:00,
2013-05-30 18:13:00,91.8,65.5,30.15,NNE,23,4.5,4.5,42,0.00,,,0.00,meteobridge,2013-05-30 22:13:00,
2013-05-30 18:19:00,92.7,64.8,30.16,SW,225,3.1,4.5,40,0.00,,,0.00,meteobridge,2013-05-30 22:19:00,
2013-05-30 18:24:00,92.7,64.0,30.16,NW,315,2.2,3.8,39,0.00,,,0.00,meteobridge,2013-05-30 22:24:00,
2013-05-30 18:29:00,93.2,63.9,30.16,South,180,2.2,2.2,38,0.00,,,0.00,meteobridge,2013-05-30 22:29:00,
2013-05-30 18:34:00,93.2,63.9,30.16,South,180,3.1,3.1,38,0.00,,,0.00,meteobridge,2013-05-30 22:34:00,
2013-05-30 18:39:00,92.7,64.0,30.16,SW,225,2.2,3.1,39,0.00,,,0.00,meteobridge,2013-05-30 22:39:00,
2013-05-30 18:45:00,93.4,65.5,30.16,NW,315,1.6,3.1,40,0.00,,,0.00,meteobridge,2013-05-30 22:45:00,
2013-05-30 18:50:00,93.4,64.0,30.15,WSW,248,3.1,3.8,38,0.00,,,0.00,meteobridge,2013-05-30 22:50:00,
2013-05-30 18:55:00,93.2,63.9,30.16,South,180,5.4,5.4,38,0.00,,,0.00,meteobridge,2013-05-30 22:55:00,
2013-05-30 19:02:00,92.5,64.6,30.16,SW,225,2.2,2.2,40,0.00,,,0.00,meteobridge,2013-05-30 23:02:00,
2013-05-30 19:07:00,92.3,65.1,30.16,South,180,3.1,3.1,41,0.00,,,0.00,meteobridge,2013-05-30 23:07:00,
2013-05-30 19:13:00,91.6,64.6,30.15,SE,135,2.2,2.2,41,0.00,,,0.00,meteobridge,2013-05-30 23:13:00,
2013-05-30 19:18:00,91.0,65.5,30.15,SE,135,1.6,1.6,43,0.00,,,0.00,meteobridge,2013-05-30 23:18:00,
2013-05-30 19:23:00,89.8,64.2,30.15,South,180,2.2,2.2,43,0.00,,,0.00,meteobridge,2013-05-30 23:23:00,
2013-05-30 19:28:00,88.0,65.3,30.16,SE,135,1.6,1.6,47,0.00,,,0.00,meteobridge,2013-05-30 23:28:00,
2013-05-30 19:33:00,86.7,65.8,30.16,SE,135,1.6,2.2,50,0.00,,,0.00,meteobridge,2013-05-30 23:33:00,
2013-05-30 19:39:00,86.4,66.7,30.16,SE,135,2.2,2.2,52,0.00,,,0.00,meteobridge,2013-05-30 23:39:00,
2013-05-30 19:44:00,85.8,67.3,30.16,SE,135,2.2,2.2,54,0.00,,,0.00,meteobridge,2013-05-30 23:44:00,
2013-05-30 19:49:00,85.3,67.3,30.16,SE,135,3.1,3.1,55,0.00,,,0.00,meteobridge,2013-05-30 23:49:00,
2013-05-30 19:54:00,84.4,67.5,30.16,South,180,2.2,3.1,57,0.00,,,0.00,meteobridge,2013-05-30 23:54:00,
2013-05-30 19:59:00,83.3,68.0,30.17,SE,135,2.2,3.1,60,0.00,,,0.00,meteobridge,2013-05-30 23:59:00,
2013-05-30 20:04:00,82.4,68.0,30.17,SE,135,3.1,3.1,62,0.00,,,0.00,meteobridge,2013-05-31 00:04:00,
2013-05-30 20:10:00,81.0,68.0,30.17,SE,135,3.1,3.1,65,0.00,,,0.00,meteobridge,2013-05-31 00:10:00,
2013-05-30 20:15:00,79.9,68.4,30.16,SE,135,3.8,3.8,68,0.00,,,0.00,meteobridge,2013-05-31 00:15:00,
2013-05-30 20:20:00,78.8,68.2,30.17,SE,135,3.8,3.8,70,0.00,,,0.00,meteobridge,2013-05-31 00:20:00,
2013-05-30 20:25:00,78.1,68.7,30.17,SE,135,3.1,3.8,73,0.00,,,0.00,meteobridge,2013-05-31 00:25:00,
2013-05-30 20:30:00,77.7,68.7,30.17,SE,135,3.8,3.8,74,0.00,,,0.00,meteobridge,2013-05-31 00:30:00,
2013-05-30 20:35:00,77.4,68.0,30.17,SE,135,3.8,3.8,73,0.00,,,0.00,meteobridge,2013-05-31 00:35:00,
2013-05-30 20:41:00,77.0,68.0,30.17,East,90,3.8,3.8,74,0.00,,,0.00,meteobridge,2013-05-31 00:41:00,
2013-05-30 20:46:00,76.8,68.7,30.17,SE,135,3.1,3.1,76,0.00,,,0.00,meteobridge,2013-05-31 00:46:00,
2013-05-30 20:51:00,76.5,68.4,30.18,East,90,2.2,2.2,76,0.00,,,0.00,meteobridge,2013-05-31 00:51:00,
2013-05-30 20:56:00,76.3,68.2,30.17,SE,135,2.2,2.2,76,0.00,,,0.00,meteobridge,2013-05-31 00:56:00,
2013-05-30 21:01:00,76.3,68.5,30.18,SE,135,2.2,2.2,77,0.00,,,0.00,meteobridge,2013-05-31 01:01:00,
2013-05-30 21:06:00,76.1,68.7,30.18,SE,135,2.2,2.2,78,0.00,,,0.00,meteobridge,2013-05-31 01:06:00,
2013-05-30 21:12:00,75.7,68.4,30.18,East,90,3.1,3.1,78,0.00,,,0.00,meteobridge,2013-05-31 01:12:00,
2013-05-30 21:17:00,75.4,68.4,30.18,ESE,113,3.1,3.1,79,0.00,,,0.00,meteobridge,2013-05-31 01:17:00,
2013-05-30 21:22:00,75.2,68.2,30.18,SE,135,2.2,2.2,79,0.00,,,0.00,meteobridge,2013-05-31 01:22:00,
2013-05-30 21:27:00,74.8,68.9,30.18,East,90,3.1,3.1,82,0.00,,,0.00,meteobridge,2013-05-31 01:27:00,
2013-05-30 21:32:00,74.7,68.7,30.18,East,90,3.1,3.1,82,0.00,,,0.00,meteobridge,2013-05-31 01:32:00,
2013-05-30 21:37:00,74.5,68.9,30.19,SE,135,3.1,3.1,83,0.00,,,0.00,meteobridge,2013-05-31 01:37:00,
2013-05-30 21:43:00,74.1,68.9,30.19,East,90,3.1,3.1,84,0.00,,,0.00,meteobridge,2013-05-31 01:43:00,
2013-05-30 21:48:00,73.9,69.1,30.19,East,90,2.2,2.2,85,0.00,,,0.00,meteobridge,2013-05-31 01:48:00,
2013-05-30 21:53:00,73.9,69.1,30.19,East,90,2.2,3.1,85,0.00,,,0.00,meteobridge,2013-05-31 01:53:00,
2013-05-30 21:58:00,73.9,69.4,30.19,SE,135,2.2,3.1,86,0.00,,,0.00,meteobridge,2013-05-31 01:58:00,
2013-05-30 22:03:00,73.8,69.3,30.19,SE,135,2.2,3.1,86,0.00,,,0.00,meteobridge,2013-05-31 02:03:00,
2013-05-30 22:08:00,73.8,69.3,30.19,SE,135,2.2,2.2,86,0.00,,,0.00,meteobridge,2013-05-31 02:08:00,
2013-05-30 22:14:00,73.8,69.3,30.19,SE,135,3.1,3.1,86,0.00,,,0.00,meteobridge,2013-05-31 02:14:00,
2013-05-30 22:19:00,73.6,69.1,30.19,SE,135,4.5,4.5,86,0.00,,,0.00,meteobridge,2013-05-31 02:19:00,
2013-05-30 22:24:00,73.4,69.3,30.19,East,90,2.2,2.2,87,0.00,,,0.00,meteobridge,2013-05-31 02:24:00,
2013-05-30 22:29:00,73.4,69.3,30.19,SE,135,3.1,3.8,87,0.00,,,0.00,meteobridge,2013-05-31 02:29:00,
2013-05-30 22:34:00,73.6,69.4,30.19,SE,135,3.1,3.8,87,0.00,,,0.00,meteobridge,2013-05-31 02:34:00,
2013-05-30 22:39:00,73.8,69.6,30.19,SE,135,2.2,3.1,87,0.00,,,0.00,meteobridge,2013-05-31 02:39:00,
2013-05-30 22:45:00,74.3,70.2,30.19,SE,135,3.1,3.1,87,0.00,,,0.00,meteobridge,2013-05-31 02:45:00,
2013-05-30 22:50:00,74.5,70.0,30.19,East,90,2.2,3.1,86,0.00,,,0.00,meteobridge,2013-05-31 02:50:00,
2013-05-30 22:55:00,74.7,70.2,30.19,SE,135,3.8,3.8,86,0.00,,,0.00,meteobridge,2013-05-31 02:55:00,
2013-05-30 23:00:00,75.0,70.2,30.19,SE,135,3.8,3.8,85,0.00,,,0.00,meteobridge,2013-05-31 03:00:00,
2013-05-30 23:05:00,75.4,70.2,30.19,East,90,3.8,3.8,84,0.00,,,0.00,meteobridge,2013-05-31 03:05:00,
2013-05-30 23:10:00,75.7,70.2,30.19,East,90,4.5,4.5,83,0.00,,,0.00,meteobridge,2013-05-31 03:10:00,
2013-05-30 23:16:00,75.9,70.0,30.18,SE,135,4.5,4.5,82,0.00,,,0.00,meteobridge,2013-05-31 03:16:00,
2013-05-30 23:21:00,76.1,69.8,30.18,SE,135,3.1,3.1,81,0.00,,,0.00,meteobridge,2013-05-31 03:21:00,
2013-05-30 23:26:00,75.9,70.0,30.19,SE,135,5.4,5.4,82,0.00,,,0.00,meteobridge,2013-05-31 03:26:00,
2013-05-30 23:31:00,76.1,69.8,30.19,SSW,203,2.2,2.2,81,0.00,,,0.00,meteobridge,2013-05-31 03:31:00,
2013-05-30 23:36:00,75.9,69.6,30.18,East,90,4.5,6.0,81,0.00,,,0.00,meteobridge,2013-05-31 03:36:00,
2013-05-30 23:41:00,76.1,69.4,30.19,SE,135,2.2,3.8,80,0.00,,,0.00,meteobridge,2013-05-31 03:41:00,
2013-05-30 23:47:00,76.1,69.4,30.19,SE,135,3.1,3.1,80,0.00,,,0.00,meteobridge,2013-05-31 03:47:00,
2013-05-30 23:52:00,76.1,69.4,30.19,South,180,3.1,4.5,80,0.00,,,0.00,meteobridge,2013-05-31 03:52:00,
2013-05-30 23:57:00,76.1,69.4,30.19,SE,135,2.2,3.8,80,0.00,,,0.00,meteobridge,2013-05-31 03:57:00,